Flag for Brazil Weather past 2 weeks in Macapá, Amapá, Brazil

Now
86 °F

Scattered clouds.


Feels Like: 97 °F
Forecast: 76 / 87 °F
Wind: 6 mph from Northwest

Location: Macapa Airport

Current Time: Mar 31, 2015 at 9:22:04 AM

Latest Report: Mar 31, 2015 at 9:00 AM


Visibility: N/A

Pressure: 29.95 "Hg

Humidity: 75%

Dew point: 77 °F

Location of MacapáLocation

Historic Weather in Macapá — Graph

°F

Macapá temperature yesterday

Maximum temperature yesterday: 93 °F (at 1:00 PM)
Minimum temperature yesterday: 32 °F (at 2:00 PM)
Average temperature yesterday: 79 °F

Past Weeks' High & Low Weather Summary

 TemperatureHumidityPressure
High95 °F (Mar 22, 3:00 PM)100% (Mar 16, 8:00 AM)30.01 "Hg (Mar 16, 8:00 AM)
Low32 °F (Mar 30, 2:00 PM)44% (Mar 22, 4:00 PM)29.77 "Hg (Mar 16, 4:00 PM)
Average81 °F88%29.89 "Hg
* Reported Mar 16 8:00 AM — Mar 31 8:00 AM, Macapá, Weather by CustomWeather, © 2015

Note: Actual official high and low records may vary slightly from our data, if they occured in-between our weather recording intervals... More about our weather records

Advertising

Macapá weather history for previous 24 hours

 ConditionsComfort  
Time TempWeatherWind HumidityBarometerVisibility
8:00 AM
Tue, Mar 31
79 °FScattered clouds.3 mph100%29.92 "HgN/A
7:00 AM75 °FPartly sunny.3 mph100%29.92 "HgN/A
6:00 AM75 °FPartly cloudy.2 mph100%29.89 "HgN/A
5:00 AM75 °FPartly cloudy.2 mph100%29.89 "HgN/A
4:00 AM75 °FPartly cloudy.2 mph100%29.89 "HgN/A
3:00 AM75 °FMostly cloudy.5 mph100%29.89 "HgN/A
2:00 AM75 °FRain. Mostly cloudy.2 mph100%29.92 "Hg3 mi
1:00 AM75 °FPassing clouds.3 mph100%29.92 "HgN/A
12:00 AM75 °FPartly cloudy.5 mph100%29.92 "HgN/A
11:00 PM
Mon, Mar 30
77 °FPartly cloudy.2 mph94%29.95 "HgN/A
10:00 PM77 °FPartly cloudy.2 mph94%29.95 "HgN/A
9:00 PM77 °FOvercast.5 mph94%29.92 "HgN/A
8:00 PM77 °FLow clouds.6 mph94%29.89 "HgN/A
7:00 PM77 °FLow clouds.7 mph94%29.86 "HgN/A
6:00 PM77 °FLight rain. Low clouds.7 mph94%29.86 "HgN/A
5:00 PM77 °FLight rain. Low clouds.12 mph100%29.83 "HgN/A
4:00 PM77 °FLight rain. Cloudy.17 mph89%29.86 "Hg3 mi
3:00 PM84 °FScattered showers. Broken clouds.10 mph74%N/AN/A
2:00 PM32 °FScattered showers. Broken clouds.9 mph100%29.89 "HgN/A
1:00 PM93 °FScattered showers. Scattered clouds.6 mph56%29.89 "HgN/A
12:00 PM91 °FScattered clouds.7 mph59%29.92 "HgN/A
11:00 AM88 °FBroken clouds.7 mph70%29.92 "HgN/A
10:00 AM86 °FBroken clouds.7 mph75%29.95 "HgN/A
9:00 AM82 °FBroken clouds.6 mph84%29.92 "HgN/A
Weather by CustomWeather, © 2015

See weather overviewHow to use our weather pages